カタログに戻る

NIMBUS 2 DEB

運用中LEO
NORAD 28619·DEBRIS·🇺🇸 United States

打ち上げ May 15, 1966 から Vandenberg Space Force Base

Loading…

次のパス (今後24時間)

TLE

最新Source: Space-Track

元期: Sep 13, 2026, 08:21 UTC

1 28619U 66040AJ  26256.34806978  .00003688  00000-0  29792-2 0  9994
2 28619 100.3104  88.2035 0033896  20.7057 103.2649 13.90744769597098

AllMySatでNIMBUS 2 DEBをリアルタイム追跡

Download on the App Store